Вернуться в каталог

STARLINK-4358

АктивенСвязьSSO
NORAD 53225·PAYLOAD·🇺🇸 United States

Запущен Jul 22, 2022 с Vandenberg Space Force Base

Loading…

Ближайшие Пролёты (ближайшие 24 часа)

TLE

СвежийSource: CelesTrak SupGP

Эпоха: Sep 15, 2026, 02:35 UTC

1 53225C 22084AN  26258.10812500  .00053440  00000+0  16589-2 0  2587
2 53225  97.2834 313.9335 0001623  84.3709 134.9502 15.33411405    14

Отслеживайте STARLINK-4358 в реальном времени с AllMySat

Download on the App Store